Miscellaneous Local Product
Issued by NWS Hastings, NE

Home | Current Version | Previous Version | Graphics & Text | Print | Product List | Glossary On
Versions: 1 2 3 4 5 6 7 8 9 10 11 12 13 14 15 16 17 18 19 20 21 22 23 24 25 26 27 28 29 30 31 32 33 34 35 36 37 38 39 40 41 42 43 44 45 46 47 48 49 50
000
AXUS43 KGID 160502
MISGRI

GID CWA HOURLY WEATHER ROUNDUP
NATIONAL WEATHER SERVICE HASTINGS NE
1200 AM CDT MON OCT 16 2017

NOTE: "FAIR" INDICATES FEW OR NO CLOUDS BELOW 12,000 FEET WITH NO
SIGNIFICANT WEATHER AND/OR OBSTRUCTIONS TO VISIBILITY.

...SOUTH CENTRAL NEBRASKA...

CITY           SKY/WX    TMP DP  RH WIND       PRES   REMARKS
GRAND ISLAND   CLEAR     41  37  86 CALM      30.37S
HASTINGS       CLEAR     41  35  79 CALM      30.37S
KEARNEY        CLEAR     43  33  68 NW7       30.37F
ORD            CLEAR     36  31  82 S3        30.34F
YORK           PTCLDY    39  36  87 CALM      30.36S
AURORA         CLEAR     39  34  83 W5        30.36S
LEXINGTON      CLEAR     38  33  81 CALM      30.37S
HOLDREGE       CLEAR     41  31  68 W3        30.37S
HEBRON         CLEAR     40  37  87 CALM      30.37S

...NEBRASKA PANHANDLE...

CITY           SKY/WX    TMP DP  RH WIND       PRES   REMARKS
CHADRON        CLEAR     31  25  78 NE3       30.30F
ALLIANCE       CLOUDY    33  25  72 CALM      30.34S
SCOTTSBLUFF    CLEAR     37  27  67 E7        30.33F WCI  32
SIDNEY         CLOUDY    30  24  78 SW9       30.38F WCI  22

...WESTERN AND NORTH CENTRAL NEBRASKA...

CITY           SKY/WX    TMP DP  RH WIND       PRES   REMARKS
VALENTINE      CLEAR     33  28  81 W5        30.32F WCI  29
AINSWORTH      CLEAR     39  32  76 CALM      30.32F
ONEILL         CLEAR     39  36  91 SW3       30.33F
BROKEN BOW     CLEAR     33  30  88 CALM      30.36R
IMPERIAL       CLEAR     38  29  70 CALM      30.38S
NORTH PLATTE   CLEAR     35  31  85 NE3       30.36F
MCCOOK         CLEAR     41  30  65 SW6       30.38S

...EASTERN NEBRASKA...

CITY           SKY/WX    TMP DP  RH WIND       PRES   REMARKS
NORFOLK        CLEAR     39  33  79 CALM      30.33F
SO SIOUX CITY  CLEAR     40  35  83 CALM      30.31S
TEKAMAH        CLEAR     43  35  73 W7        30.32S
COLUMBUS       CLEAR     36  34  92 CALM      30.35F
ALBION         CLEAR     34  32  92 CALM      30.35S
OMAHA EPPLEY   CLEAR     45  38  76 E3        30.34R
OFFUTT AFB     CLEAR     41  35  79 CALM      30.33S
MILLARD        CLEAR     43  41  93 CALM      30.34S
LINCOLN        CLEAR     41  36  82 CALM      30.37R
NEBRASKA CITY  PTCLDY    46  37  68 W9        30.34S
BEATRICE       CLEAR     41  37  84 CALM      30.37R
FALLS CITY     CLEAR     41  38  89 CALM      30.35S

...NORTHERN KANSAS...

CITY           SKY/WX    TMP DP  RH WIND       PRES   REMARKS
GOODLAND       CLEAR     48  28  46 SW13      30.39F
HILL CITY      CLEAR     39  34  82 W3        30.40R
NORTON         CLEAR     37  27  65 SW8       30.38R WCI  31
PHILLIPSBURG   CLEAR     37  34  87 W5        30.38S WCI  34
SMITH CENTER   CLEAR     39  34  81 CALM      30.38S
HAYS           CLEAR     39  34  82 SW6       30.40S WCI  35
RUSSELL        CLEAR     45  37  73 SW7       30.38S
CONCORDIA      CLEAR     48  35  60 SW7       30.36F
SALINA         CLEAR     46  41  82 S5        30.39S
TOPEKA         CLEAR     43  42  97 CALM      30.38S



USA.gov is the U.S. government's official web portal to all federal, state and local government web resources and services.